STARLINK-2634 (48445 NORAD) Tracking and Keplerian Element Data

This shows tracking and keplerian element data for the satellite.

Feedback or suggestion? Click here.




ElementValue
Catalog48445
NameSTARLINK-2634
Epoch Orbit365
Epoch Day214.91667824
Epoch Year2021
RAAN162.8155
Inclination53.0485
Eccentricity0.0001412
Argument of Perigee73.4489
Mean Anonmoly204.8864
Mean Motion15.20967057
Decay Rate-0.00834625
L11 48445U 21040T 21214.91667824 -.00834625 00000-0 -40355-1 0 9993
L22 48445 53.0485 162.8155 0001412 73.4489 204.8864 15.20967057 3651

Live tracking and technical data element details for STARLINK-2634 (NORAD 48445). STARLINK-2634 can be tracked NOW for your location showing map with azimuth and elevation plus other details from your city location.

Track the satellite on the map from your city or location and see movement details for azimuth, elevation, latitude, longitude, range, height, and movement on the map or in text.







IsCatalogInMostPopularTable: catalog: 48445, numindb: 24
Update: records affected: 1



GetName: 48445 STARLINK-2634

Hit Count: updated at: Tue, 03 Aug 2021 23:14:54 GMT